Location: General Nathan Twining Observatory
(34.5931°N, 106.8201°W)
Time: 19:22:59
(UTC-06:00)

ADEOS II - Visible Passes

Search period start: 03 August 2015 00:00
Search period end: 13 August 2015 00:00
Orbit: 800 x 802 km, 98.3° (Epoch: 02 August)

Date Brightness Start Highest point End Pass type
(mag) Time Alt. Az. Time Alt. Az. Time Alt. Az.
03 Aug 4.8 05:11:59 10° NE 05:15:06 16° E 05:18:27 10° SE visible
06 Aug 4.3 05:32:02 10° NE 05:36:24 27° E 05:40:50 10° SSE visible
07 Aug 4.8 05:07:10 10° ENE 05:09:52 15° E 05:12:51 10° SE visible
09 Aug 3.4 05:52:35 10° NNE 05:57:36 44° E 06:02:36 10° S visible
10 Aug 4.4 05:27:01 10° NE 05:31:11 24° E 05:35:28 10° SSE visible
11 Aug 4.9 05:02:26 10° ENE 05:04:38 13° E 05:07:09 10° ESE visible
